644  
FPUS82 KCHS 250412  
OPUCHS  
 
TEST   
..KCHS/KSAV GATEWAY OBSERVATIONS
 
TEST  
NATIONAL WEATHER SERVICE CHARLESTON SC  
1200 AM EDT MON MAY 25 2020  
 
NOTE: "FAIR" INDICATES FEW OR NO CLOUDS BELOW 12,000 FEET WITH NO  
SIGNIFICANT WEATHER AND/OR OBSTRUCTIONS TO VISIBILITY.  
 
SCZ050-WAZ558-NCZ071-TXZ119-213-PAZ071-DCZ001-FLZ074-172-MI076-  
NYZ176-178-MAZ016-IL014-TNZ027-NJZ106-GAZ044-MD014-250500-  
   
..GATEWAY OBSERVATIONS FOR CHARLESTON INTERNATIONAL
 
 
 
CITY SKY/WX TMP DP RH WIND PRES REMARKS  
CHAS AIRPORT FAIR 72 70 93 CALM 30.07S  
SEATTLE CLOUDY 66 48 52 SW5 30.11S  
CHARLOTTE MOCLDY 71 64 78 NE5 30.13F  
DALLAS DFW MOCLDY 67 64 90 CALM 29.79R  
DALLAS LOVE FAIR 69 63 81 SE5 29.79R  
PHILLADELPHIA CLOUDY 58 52 80 E7 30.23F  
WASH NATIONAL CLOUDY 64 58 80 S5 30.21S  
BALTIMORE CLOUDY 63 57 81 E6 30.20F  
MIAMI CLOUDY 76 73 91 E16 29.93S  
DETROIT FAIR 72 63 73 CALM 29.97R  
NEWARK MOCLDY 58 53 84 SE5 30.23F  
LAGUARDIA MOCLDY 59 52 77 NE8 30.23S  
J F K CLOUDY 58 56 93 NE9 30.24S  
BOSTON LOGAN CLOUDY 49 44 83 NE6 30.31S  
FT. LAUDERDALE LGT RAIN 76 72 87 E20 29.92F  
CHICAGO O'HARE MOCLDY 78 65 63 S8 29.90F  
CHICAGO MIDWAY CLOUDY 79 65 62 S13G22 29.91R  
HOUSTON BUSH MOCLDY 67 65 93 SE17 29.78S  
HOUSTON HOBBY FAIR 71 66 84 E8 29.80R  
NASHVILLE FAIR 72 63 73 N3 30.03R  
ATLANTA MOCLDY 73 63 70 E8 30.08R  
LONDON HEATHRW N/A 50 46 87 W3 30.54S  
 

 
 
GAZ044-118-TXZ119-213-NCZ071-DCZ001-MDZ014-506-PAZ021-071-NJZ106-  
NYZ176-178-MAZ106-OHZ011-021-055-MIZ076-KYZ091-ILZ014-INZ047-  
MNZ060-ONZ431-250500-  
   
..GATEWAY OBSERVATIONS FOR SAVANNAH INTERNATIONAL
 
 
 
CITY SKY/WX TMP DP RH WIND PRES REMARKS  
SAVANNAH ARPT FAIR 77 73 87 SE6 30.06R  
ATLANTA MOCLDY 73 63 70 E8 30.08R  
CHARLOTTE MOCLDY 71 64 78 NE5 30.13F  
DALLAS DFW MOCLDY 67 64 90 CALM 29.79R  
HOUSTON BUSH MOCLDY 67 65 93 SE17 29.78S  
WASH NATIONAL CLOUDY 64 58 80 S5 30.21S  
WASH DULLES CLOUDY 62 57 83 S3 30.20F  
BALTIMORE CLOUDY 63 57 81 E6 30.20F  
PHILADELPHIA CLOUDY 58 52 80 E7 30.23F  
NEWARK MOCLDY 58 53 84 SE5 30.23F  
LAGUARDIA MOCLDY 59 52 77 NE8 30.23S  
J F K CLOUDY 58 56 93 NE9 30.24S  
BOSTON CLOUDY 49 44 83 NE6 30.31S  
PITTSBURG FAIR 69 61 75 SE7 30.07R  
AKRON MOCLDY 74 64 71 S5 30.03S  
CLEVELAND FAIR 73 64 73 S8 30.01S  
CINCINNATI CLOUDY 68 63 84 NW3 30.03R  
COLUMBUS FAIR 72 67 85 S3 30.02S  
DETROIT FAIR 72 63 73 CALM 29.97R  
CHICAGO O'HARE MOCLDY 78 65 63 S8 29.90F  
MINNEAPOLIS MOCLDY 72 64 76 SW5 29.82S  
INDIANAPOLIS FAIR 68 65 90 S6 30.00F  
TORONTO CANADA MOCLDY 66 57 72 S5 29.93S  
 

 
 
 
CLICK HERE TO GO TO PREVIOUS BULLETINS.

The Nexlab SC Page
The Nexlab GA Page Main Text Page